星链-32410 (STARLINK-32410)

导读 | 豆包AI

STARLINK-32410是美国SpaceX公司星链(Starlink)星座的卫星,于2024年11月9日发射入轨,是星链全球低轨互联网星座计划的组成部分。星链项目旨在构建覆盖全球的低时延高速卫星互联网,可为偏远地区提供宽带接入,同时支持军事通信、应急组网等多元场景。作为SpaceX批量部署的星链卫星之一,它将和数千颗同系列卫星协同,共同完善星链星座的全球覆盖能力,推动天基通信基础设施建设。

Basic Information
目录编号:
61887
目录名称:
STARLINK-32410
国际标识:
2024-204P
轨道中心:
EARTH
卫星名称:
星链-32410
卫星全名:
星链-32410 (STARLINK-32410)
卫星状态:
在轨 (已飞行491 天)
发射日期:
2024-11-09 UTC
国别 :
美国 (US)
星等 :
--
Orbit Information
数据来源 国际轨道数据 AOE轨道数据
星历时间 2026-03-14T16:41:10+0800
1天前
查看轨道信息
2026-03-11T02:00:00+0800
4天前
查看轨道信息
半长轴 6853.365km 6853.347km
偏心率 0.0001284 0.0001407
轨道倾角 53.161° 53.156°
近地点辐角 81.095° 59.604°
升交点赤经 105.327° 122.102°
平近点角 279.020° 192.450°
近地点 474.348km 474.245km
远地点 476.108km 476.175km
周期 94.106分钟 94.105分钟
每日圈数 15.301958 15.302019
Detailed Information
固有亮度:
5
最大亮度:
2.5
卫星平台:
Starlink V1.0
覆盖范围:
全球
运营商:
太空探索技术公司
运营商所在国:
美国
制造商(研发单位):
太空探索技术公司
制造商所在国:
美国
使用方式:
暂无
Satellite Introduction
Starlink 计划是 SpaceX 推出的全球卫星互联网项目,通过发射低轨道卫星,为全球尤其是偏远地区提供高速、低延迟的互联网服务。自 2019 年起,Starlink 已部署数千颗卫星,旨在缩小全球数字鸿沟,推动互联网普及。该项目还为军事、航空等行业提供通信支持,带来广泛经济效益。
2D Orbit Map
3D Orbit Map
Orbit Altitude Analysis Chart
Orbit Inclination Analysis Chart
Orbit Comprehensive Analysis Chart
View Comprehensive Chart